timestamp,surface_pressure_avg,surface_temp_avg,battery_voltage,lat,long
2022-01-01 00:09:00+00:00,310.8846,3.76,12.65,47.84626,-54.09684
2022-01-01 00:19:00+00:00,304.658,3.7,12.65,47.84626,-54.09684
2022-01-01 00:29:00+00:00,298.5497,3.7,12.65,47.84626,-54.09684
2022-01-01 00:39:00+00:00,287.8114,3.66,12.65,47.84626,-54.09684
2022-01-01 00:49:00+00:00,272.8014,3.6,12.65,47.84626,-54.09684
2022-01-01 00:59:00+00:00,264.7781,3.6,12.65,47.84626,-54.09684
2022-01-01 01:09:00+00:00,256.4347,3.6,12.65,47.84626,-54.09684
2022-01-01 01:19:00+00:00,244.4481,3.6,12.57,47.84626,-54.09684
2022-01-01 01:29:00+00:00,234.9681,3.59,12.57,47.84626,-54.09684
2022-01-01 01:39:00+00:00,232.9164,3.58,12.57,47.84626,-54.09684
2022-01-01 01:49:00+00:00,230.4681,3.59,12.57,47.84626,-54.09684
2022-01-01 01:59:00+00:00,224.2181,3.6,12.57,47.84626,-54.09684
2022-01-01 02:09:00+00:00,217.7731,3.6,12.57,47.84626,-54.09684
2022-01-01 02:19:00+00:00,215.1097,3.6,12.57,47.84626,-54.09684
2022-01-01 02:29:00+00:00,209.0697,3.6,12.57,47.84626,-54.09684
2022-01-01 02:39:00+00:00,199.7631,3.59,12.57,47.84626,-54.09684
2022-01-01 02:49:00+00:00,197.3765,3.5,12.57,47.84626,-54.09684
2022-01-01 02:59:00+00:00,198.8648,3.5,12.57,47.84626,-54.09684
2022-01-01 03:09:00+00:00,196.4247,3.5,12.57,47.84626,-54.09684
2022-01-01 03:19:01+00:00,193.8564,3.5,12.57,47.84626,-54.09684
2022-01-01 03:29:01+00:00,193.1664,3.49,12.57,47.84626,-54.09684
2022-01-01 03:39:01+00:00,191.9798,3.5,12.57,47.84626,-54.09684
2022-01-01 03:49:01+00:00,192.0714,3.57,12.57,47.84626,-54.09684
2022-01-01 03:59:01+00:00,193.9182,3.6,12.57,47.84626,-54.09684
2022-01-01 04:09:01+00:00,194.6931,3.6,12.57,47.84626,-54.09684
2022-01-01 04:19:01+00:00,197.1297,3.5,12.57,47.84626,-54.09684
2022-01-01 04:29:01+00:00,200.8698,3.5,12.57,47.84626,-54.09684
2022-01-01 04:39:01+00:00,202.2464,3.4,12.57,47.84626,-54.09684
2022-01-01 04:49:01+00:00,204.2664,3.3,12.57,47.84626,-54.09684
2022-01-01 04:59:01+00:00,207.8581,3.28,12.57,47.84626,-54.09684
2022-01-01 05:09:01+00:00,212.4781,3.3,12.57,47.84626,-54.09684
2022-01-01 05:19:00+00:00,216.9998,3.4,12.57,47.84626,-54.09684
2022-01-01 05:29:00+00:00,220.3614,3.3,12.57,47.84626,-54.09684
2022-01-01 05:39:00+00:00,225.4681,3.2,12.57,47.84626,-54.09684
2022-01-01 05:49:00+00:00,233.0231,3.19,12.57,47.84626,-54.09684
2022-01-01 05:59:00+00:00,240.4297,3.3,12.57,47.84626,-54.09684
2022-01-01 06:09:00+00:00,246.2747,3.43,12.57,47.84626,-54.09684
2022-01-01 06:19:00+00:00,252.6198,3.61,12.49,47.84626,-54.09684
2022-01-01 06:29:00+00:00,259.5014,3.7,12.49,47.84626,-54.09684
2022-01-01 06:39:00+00:00,264.0831,3.7,12.49,47.84626,-54.09684
2022-01-01 06:49:00+00:00,268.6164,3.7,12.49,47.84626,-54.09684
2022-01-01 06:59:00+00:00,277.1414,3.7,12.49,47.84626,-54.09684
2022-01-01 07:09:00+00:00,284.4347,3.7,12.49,47.84626,-54.09684
2022-01-01 07:19:01+00:00,290.0098,3.66,12.49,47.84626,-54.09684
2022-01-01 07:29:01+00:00,297.7847,3.6,12.49,47.84626,-54.09684
2022-01-01 07:39:01+00:00,307.613,3.6,12.49,47.84626,-54.09684
2022-01-01 07:49:01+00:00,316.478,3.6,12.49,47.84626,-54.09684
2022-01-01 07:59:01+00:00,325.658,3.58,12.49,47.84626,-54.09684
2022-01-01 08:09:01+00:00,336.9813,3.5,12.49,47.84626,-54.09684
2022-01-01 08:19:00+00:00,342.1663,3.5,12.41,47.84626,-54.09684
2022-01-01 08:29:00+00:00,346.713,3.5,12.41,47.84626,-54.09684
2022-01-01 08:39:00+00:00,355.673,3.5,12.41,47.84626,-54.09684
2022-01-01 08:49:00+00:00,361.2347,3.58,12.41,47.84626,-54.09684
2022-01-01 08:59:00+00:00,362.9396,3.61,12.41,47.84626,-54.09684
2022-01-01 09:09:00+00:00,367.4396,3.78,12.41,47.84626,-54.09684
2022-01-01 09:19:01+00:00,376.633,3.87,12.41,47.84626,-54.09684
2022-01-01 09:29:01+00:00,380.43800000000016,3.9,12.41,47.84626,-54.09684
2022-01-01 09:39:01+00:00,379.6611,3.89,12.41,47.84626,-54.09684
2022-01-01 09:49:01+00:00,384.3362,3.9,12.41,47.84626,-54.09684
2022-01-01 09:59:01+00:00,387.658,3.9,12.41,47.84626,-54.09684
2022-01-01 10:09:01+00:00,388.0095,3.9,12.41,47.84626,-54.09684
2022-01-01 10:19:01+00:00,388.9728,3.9,12.41,47.84626,-54.09684
2022-01-01 10:29:01+00:00,390.6494,3.9,12.41,47.84626,-54.09684
2022-01-01 10:39:01+00:00,392.6428,3.9,12.41,47.84626,-54.09684
2022-01-01 10:49:01+00:00,389.4246,3.9,12.41,47.84626,-54.09684
2022-01-01 10:59:01+00:00,386.86800000000005,3.9,12.41,47.84626,-54.09684
2022-01-01 11:09:01+00:00,385.6762,3.9,12.41,47.84626,-54.09684
2022-01-01 11:19:01+00:00,382.5712,3.82,12.41,47.84626,-54.09684
2022-01-01 11:29:01+00:00,378.448,3.8,12.41,47.84626,-54.09684
2022-01-01 11:39:01+00:00,373.2412,3.8,12.41,47.84626,-54.09684
2022-01-01 11:49:01+00:00,365.2346,3.7,12.41,47.84626,-54.09684
2022-01-01 11:59:01+00:00,359.4046,3.65,12.41,47.84626,-54.09684
2022-01-01 12:09:01+00:00,355.9363,3.67,12.41,47.84626,-54.09684
2022-01-01 12:19:01+00:00,348.5129,3.6,13.6,47.84626,-54.09684
2022-01-01 12:29:01+00:00,337.7613,3.47,13.6,47.84626,-54.09684
2022-01-01 12:39:01+00:00,330.1746,3.4,13.6,47.84626,-54.09684
2022-01-01 12:49:01+00:00,321.3447,3.4,13.6,47.84626,-54.09684
2022-01-01 12:59:01+00:00,307.673,3.3,13.6,47.84626,-54.09684
2022-01-01 13:09:01+00:00,297.9846,3.3,13.6,47.84626,-54.09684
2022-01-01 13:19:01+00:00,293.0614,3.36,14.72,47.84626,-54.09684
2022-01-01 13:29:01+00:00,282.8247,3.47,14.72,47.84626,-54.09684
2022-01-01 13:39:01+00:00,273.8698,3.5,14.72,47.84626,-54.09684
2022-01-01 13:49:01+00:00,267.9931,3.4,14.72,47.84626,-54.09684
2022-01-01 13:59:01+00:00,262.1131,3.4,14.72,47.84626,-54.09684
2022-01-01 14:09:01+00:00,250.8164,3.4,14.72,47.84626,-54.09684
2022-01-01 14:19:01+00:00,243.7781,3.38,14.88,47.84626,-54.09684
2022-01-01 14:29:01+00:00,240.4331,3.3,14.88,47.84626,-54.09684
2022-01-01 14:39:01+00:00,234.2864,3.3,14.88,47.84626,-54.09684
2022-01-01 14:49:01+00:00,227.7064,3.29,14.88,47.84626,-54.09684
2022-01-01 14:59:01+00:00,222.4731,3.2,14.88,47.84626,-54.09684
2022-01-01 15:09:01+00:00,216.1014,3.1,14.88,47.84626,-54.09684
2022-01-01 15:19:01+00:00,209.4031,3.07,14.64,47.84626,-54.09684
2022-01-01 15:29:01+00:00,207.2981,3.0,14.64,47.84626,-54.09684
2022-01-01 15:39:01+00:00,208.4482,3.0,14.64,47.84626,-54.09684
2022-01-01 15:49:01+00:00,205.9248,3.0,14.64,47.84626,-54.09684
2022-01-01 15:59:01+00:00,200.2881,3.0,14.64,47.84626,-54.09684
2022-01-01 16:09:01+00:00,197.4315,2.96,14.64,47.84626,-54.09684
2022-01-01 16:19:01+00:00,195.1981,2.97,14.24,47.84626,-54.09684
2022-01-01 16:29:01+00:00,189.9481,3.0,14.24,47.84626,-54.09684
2022-01-01 16:39:01+00:00,188.1981,3.0,14.24,47.84626,-54.09684
2022-01-01 16:49:01+00:00,191.4181,3.09,14.24,47.84626,-54.09684
2022-01-01 16:59:01+00:00,191.9115,3.12,14.24,47.84626,-54.09684
2022-01-01 17:09:01+00:00,190.4749,3.2,14.24,47.84626,-54.09684
2022-01-01 17:19:00+00:00,191.8748,3.29,14.24,47.84626,-54.09684
2022-01-01 17:29:00+00:00,196.8798,3.3,14.24,47.84626,-54.09684
2022-01-01 17:39:00+00:00,198.8581,3.39,14.24,47.84626,-54.09684
2022-01-01 17:49:00+00:00,201.2431,3.4,14.24,47.84626,-54.09684
2022-01-01 17:59:00+00:00,205.7982,3.45,14.24,47.84626,-54.09684
2022-01-01 18:09:00+00:00,208.2381,3.5,14.24,47.84626,-54.09684
2022-01-01 18:19:01+00:00,209.0482,3.5,14.0,47.84626,-54.09684
2022-01-01 18:29:01+00:00,212.5214,3.5,14.0,47.84626,-54.09684
2022-01-01 18:39:01+00:00,219.6165,3.5,14.0,47.84626,-54.09684
2022-01-01 18:49:01+00:00,224.0881,3.5,14.0,47.84626,-54.09684
2022-01-01 18:59:01+00:00,229.2214,3.5,14.0,47.84626,-54.09684
2022-01-01 19:09:01+00:00,237.1398,3.54,14.0,47.84626,-54.09684
2022-01-01 19:19:00+00:00,242.2064,3.59,13.68,47.84626,-54.09684
2022-01-01 19:29:00+00:00,245.3848,3.6,13.68,47.84626,-54.09684
2022-01-01 19:39:00+00:00,251.6147,3.64,13.68,47.84626,-54.09684
2022-01-01 19:49:00+00:00,259.713,3.68,13.68,47.84626,-54.09684
2022-01-01 19:59:00+00:00,267.1264,3.7,13.68,47.84626,-54.09684
2022-01-01 20:09:00+00:00,275.7515,3.7,13.68,47.84626,-54.09684
2022-01-01 20:19:00+00:00,282.6664,3.7,13.29,47.84626,-54.09684
2022-01-01 20:29:00+00:00,289.3314,3.7,13.29,47.84626,-54.09684
2022-01-01 20:39:00+00:00,297.2114,3.7,13.29,47.84626,-54.09684
2022-01-01 20:49:00+00:00,304.8697,3.65,13.29,47.84626,-54.09684
2022-01-01 20:59:00+00:00,310.1514,3.6,13.29,47.84626,-54.09684
2022-01-01 21:09:00+00:00,317.6096,3.59,13.29,47.84626,-54.09684
2022-01-01 21:19:00+00:00,324.7147,3.5,12.97,47.84626,-54.09684
2022-01-01 21:29:00+00:00,327.8345,3.4,12.97,47.84626,-54.09684
2022-01-01 21:39:00+00:00,329.5197,3.3,12.97,47.84626,-54.09684
2022-01-01 21:49:00+00:00,335.6662,3.3,12.97,47.84626,-54.09684
2022-01-01 21:59:00+00:00,342.6613,3.3,12.97,47.84626,-54.09684
2022-01-01 22:09:00+00:00,349.1279,3.3,12.97,47.84626,-54.09684
2022-01-01 22:19:01+00:00,351.5364,3.4,12.65,47.84626,-54.09684
2022-01-01 22:29:01+00:00,357.38300000000015,3.4,12.65,47.84626,-54.09684
2022-01-01 22:39:01+00:00,362.5363,3.4,12.65,47.84626,-54.09684
2022-01-01 22:49:01+00:00,360.4046,3.3,12.65,47.84626,-54.09684
2022-01-01 22:59:01+00:00,360.2663,3.3,12.65,47.84626,-54.09684
2022-01-01 23:09:01+00:00,362.8879,3.3,12.65,47.84626,-54.09684
2022-01-01 23:19:01+00:00,359.4046,3.3,12.57,47.84626,-54.09684
2022-01-01 23:29:01+00:00,354.9764,3.28,12.57,47.84626,-54.09684
2022-01-01 23:39:01+00:00,351.9647,3.25,12.57,47.84626,-54.09684
2022-01-01 23:49:01+00:00,353.2762,3.27,12.57,47.84626,-54.09684
2022-01-01 23:59:01+00:00,348.7396,3.28,12.57,47.84626,-54.09684
